Location: Sungai Bunut
(2.6333°N, 113.7333°E)
Time: 08:41:51
(UTC+00:00)

Vanguard 3 - Pass Details

Date: 04 December 2023
Orbit: 508 x 3239 km, 33.3° (Epoch: 21 February)

Event Time Altitude Azimuth Distance (km) Brightness Sun altitude
Rises 23:06:12 0° 291° (WNW) 2,660 9.1 10.7°
Reaches altitude 10° 23:08:11 10° 283° (WNW) 1,870 8.5 11.2°
Maximum altitude 23:12:07 43° 211° (SSW) 992 7.7 12.1°
Drops below altitude 10° 23:17:57 10° 140° (SE) 2,783 11.3 13.4°
Sets 23:21:34 0° 134° (SE) 4,170 12.2 14.2°
